This is the latest recevied weather packets stored in our database for station/object DH1NAI-6. If no packets are shown the sender has not sent any weather packets the latest 10 day(s).
| Time | Temp. | Humidity | Pressure | Rain* | Wind** | Luminosity | Snow |
|---|---|---|---|---|---|---|---|
| 1778096016 | 12.22° C | 92% | 1004.5 hPa | 0 mm | - | 0 W/m² | - |
| 1778095408 | 12.22° C | 92% | 1004.4 hPa | 0 mm | - | 0 W/m² | - |
| 1778094800 | 12.22° C | 91% | 1004.2 hPa | 0 mm | - | 0 W/m² | - |
| 1778094193 | 12.22° C | 92% | 1004.1 hPa | 0 mm | - | 0 W/m² | - |
| 1778093584 | 12.22° C | 91% | 1003.8 hPa | 0 mm | - | 0 W/m² | - |
| 1778092976 | 12.22° C | 93% | 1003.8 hPa | 0 mm | - | 0 W/m² | - |
| 1778092368 | 12.22° C | 92% | 1003.9 hPa | 0 mm | - | 0 W/m² | - |
| 1778091745 | 12.78° C | 91% | 1003.7 hPa | 0 mm | - | 0 W/m² | - |
| 1778091137 | 12.78° C | 91% | 1003.8 hPa | 0 mm | - | 1 W/m² | - |
| 1778090529 | 13.33° C | 88% | 1003.7 hPa | 0 mm | - | 2 W/m² | - |
| 1778089921 | 13.89° C | 85% | 1003.7 hPa | 0 mm | - | 4 W/m² | - |
| 1778089312 | 13.89° C | 82% | 1003.8 hPa | 0 mm | - | 5 W/m² | - |
| 1778088705 | 14.44° C | 82% | 1003.7 hPa | 0 mm | - | 8 W/m² | - |
| 1778088092 | 14.44° C | 81% | 1003.4 hPa | 0 mm | - | 10 W/m² | - |
| 1778087489 | 15° C | 79% | 1003.5 hPa | 0 mm | - | 14 W/m² | - |
| 1778086880 | 15° C | 77% | 1003.3 hPa | 0 mm | - | 17 W/m² | - |
| 1778086256 | 15.56° C | 76% | 1003.2 hPa | 0 mm | - | 18 W/m² | - |
| 1778085633 | 15.56° C | 74% | 1003.2 hPa | 0 mm | - | 22 W/m² | - |
| 1778085024 | 15.56° C | 73% | 1003.6 hPa | 0 mm | - | 21 W/m² | - |
| 1778084417 | 15.56° C | 73% | 1003.5 hPa | 0 mm | - | 23 W/m² | - |
| 1778083808 | 15.56° C | 71% | 1003.4 hPa | 0 mm | - | 19 W/m² | - |
| 1778083201 | 16.11° C | 72% | 1003.6 hPa | 0 mm | - | 22 W/m² | - |
| 1778082593 | 16.11° C | 71% | 1003.4 hPa | 0 mm | - | 28 W/m² | - |
| 1778081985 | 16.67° C | 70% | 1003.5 hPa | 0 mm | - | 40 W/m² | - |
| 1778081372 | 17.22° C | 68% | 1003.7 hPa | 0 mm | - | 48 W/m² | - |
* Rain latest hour (hover to see other rain measurements)
** Current wind speed in m/s (hover to see current wind gust speed)